GW5219 Weather Reports


time (UTC)temp
C
wind
direction
speed
KPH
gust
KPH
rain 1hr
cm
rain 24hr
cm
rain mn
cm
humidity
%
barometer
mb
20260506114718 14 52 0.0 1.6 0.00 0.00 0.00 79 1019.0
20260506114215 14 43 1.6 1.6 0.00 0.00 0.00 79 1019.4
20260506113714 14 48 0.0 0.0 0.00 0.00 0.00 79 1019.1
20260506113211 14 53 0.0 1.6 0.00 0.00 0.00 79 1018.9
20260506112707 14 51 0.0 1.6 0.00 0.00 0.00 79 1019.0
20260506112205 14 40 1.6 1.6 0.00 0.00 0.00 79 1018.8
20260506111702 14 86 0.0 0.0 0.00 0.00 0.00 79 1018.8
20260506111200 14 56 0.0 0.0 0.00 0.00 0.00 80 1018.8
20260506110657 14 60 0.0 0.0 0.00 0.00 0.00 79 1019.0
20260506110154 14 58 0.0 1.6 0.00 0.00 0.00 79 1018.8
20260506105651 14 54 0.0 1.6 0.00 0.00 0.00 78 1018.8
20260506105148 14 48 1.6 1.6 0.00 0.00 0.00 78 1018.8
20260506104646 15 57 0.0 1.6 0.00 0.00 0.00 78 1018.6
20260506104143 15 60 0.0 1.6 0.00 0.00 0.00 78 1018.7
20260506103640 15 77 0.0 0.0 0.00 0.00 0.00 78 1018.5
20260506103137 15 53 0.0 0.0 0.00 0.00 0.00 78 1018.5
20260506102635 15 196 0.0 0.0 0.00 0.00 0.00 78 1018.4
20260506102132 15 52 0.0 0.0 0.00 0.00 0.00 78 1018.5
20260506101629 15 51 0.0 1.6 0.00 0.00 0.00 78 1018.4
20260506101126 15 49 0.0 0.0 0.00 0.00 0.00 78 1018.5
20260506100624 15 111 0.0 0.0 0.00 0.00 0.00 78 1018.4
20260506100122 15 60 0.0 0.0 0.00 0.00 0.00 77 1018.5
20260506095621 15 45 1.6 3.2 0.00 0.00 0.00 78 1018.3
20260506095117 15 53 0.0 1.6 0.00 0.00 0.00 77 1018.3
20260506094614 15 51 0.0 0.0 0.00 0.00 0.00 77 1018.5
20260506094112 15 51 1.6 1.6 0.00 0.00 0.00 77 1018.4
20260506093610 15 53 0.0 1.6 0.00 0.00 0.00 77 1018.4
20260506093107 15 88 0.0 0.0 0.00 0.00 0.00 77 1018.4
20260506092605 15 132 1.6 3.2 0.00 0.00 0.00 77 1018.4
20260506092101 15 49 0.0 1.6 0.00 0.00 0.00 77 1018.4
20260506091600 15 56 1.6 1.6 0.00 0.00 0.00 77 1018.4
20260506091057 15 30 0.0 1.6 0.00 0.00 0.00 77 1018.3
20260506090555 15 65 0.0 1.6 0.00 0.00 0.00 77 1018.2
20260506090050 15 129 0.0 0.0 0.00 0.00 0.00 77 1018.3
20260506085548 15 108 0.0 0.0 0.00 0.00 0.00 77 1018.4
20260506085044 15 52 0.0 1.6 0.00 0.00 0.00 76 1018.3
20260506084541 15 128 0.0 0.0 0.00 0.00 0.00 76 1018.6
20260506084037 15 74 1.6 1.6 0.00 0.00 0.00 76 1018.4
20260506083535 15 77 0.0 1.6 0.00 0.00 0.00 76 1018.3
20260506083032 15 55 0.0 1.6 0.00 0.00 0.00 76 1018.3
20260506082528 15 35 3.2 3.2 0.00 0.00 0.00 76 1018.4
20260506082024 15 63 1.6 3.2 0.00 0.00 0.00 76 1018.5
20260506081523 15 42 0.0 1.6 0.00 0.00 0.00 75 1018.6
20260506081020 15 51 0.0 1.6 0.00 0.00 0.00 75 1018.5
20260506080517 15 149 0.0 0.0 0.00 0.00 0.00 75 1018.5
20260506073500 15 67 0.0 1.6 0.00 0.00 0.00 74 1018.2
20260506072957 15 66 0.0 1.6 0.00 0.00 0.00 74 1018.0
20260506072455 15 53 0.0 0.0 0.00 0.00 0.00 74 1018.1
20260506071953 15 52 1.6 1.6 0.00 0.00 0.00 74 1018.1
20260506071450 15 50 0.0 1.6 0.00 0.00 0.00 74 1018.0
20260506070947 15 44 1.6 1.6 0.00 0.00 0.00 74 1018.1
20260506070444 15 59 0.0 0.0 0.00 0.00 0.00 74 1017.8
20260506062422 15 93 1.6 1.6 0.00 0.15 0.15 75 1017.8
20260506061917 15 92 0.0 1.6 0.00 0.15 0.15 75 1017.7
20260506061414 15 26 1.6 3.2 0.00 0.15 0.15 75 1017.5
20260506060912 15 32 0.0 0.0 0.00 0.15 0.15 75 1017.4
20260506060410 15 59 1.6 1.6 0.00 0.15 0.15 75 1017.5
20260506051342 16 225 1.6 3.2 0.00 0.15 0.15 75 1017.1
20260506050839 16 55 0.0 1.6 0.00 0.15 0.15 75 1016.8
20260506050336 16 9 1.6 1.6 0.00 0.15 0.15 75 1016.6
20260506044827 16 62 1.6 1.6 0.00 0.15 0.15 75 1016.7
20260506044325 16 351 1.6 3.2 0.00 0.15 0.15 75 1016.7
20260506043822 16 52 0.0 1.6 0.00 0.15 0.15 76 1016.6
20260506043319 16 65 1.6 1.6 0.00 0.15 0.15 75 1016.5
20260506042817 16 22 1.6 1.6 0.00 0.15 0.15 75 1016.4
20260506042316 16 116 1.6 1.6 0.00 0.15 0.15 75 1016.2
20260506041815 16 44 6.4 9.7 0.00 0.15 0.15 75 1016.2
20260506041311 16 65 1.6 1.6 0.00 0.15 0.15 75 1016.1
20260506040808 16 33 1.6 3.2 0.00 0.15 0.15 74 1016.4
20260506040305 16 104 0.0 1.6 0.00 0.15 0.15 75 1016.3
20260506035802 16 14 1.6 3.2 0.00 0.15 0.15 74 1016.3
20260506035259 16 58 0.0 1.6 0.00 0.15 0.15 74 1016.4
20260506034756 16 77 1.6 1.6 0.00 0.15 0.15 74 1016.2
20260506034253 16 54 1.6 1.6 0.00 0.15 0.15 74 1016.2
20260506033750 16 154 1.6 1.6 0.00 0.15 0.15 73 1016.2
20260506033247 16 49 1.6 1.6 0.00 0.15 0.15 73 1016.2
20260506032744 16 66 0.0 1.6 0.00 0.15 0.15 73 1016.1
20260506032241 17 0 1.6 1.6 0.00 0.15 0.15 73 1015.9
20260506031737 17 154 1.6 3.2 0.00 0.15 0.15 72 1015.8
20260506031235 17 107 0.0 1.6 0.00 0.15 0.15 73 1015.7
20260506030733 17 28 1.6 1.6 0.00 0.15 0.15 72 1015.6
20260506030230 17 88 1.6 1.6 0.00 0.15 0.15 71 1015.7
20260506025727 17 51 1.6 3.2 0.00 0.15 0.15 71 1015.5
20260506025224 17 37 1.6 1.6 0.00 0.15 0.15 71 1015.3
20260506024720 17 130 1.6 1.6 0.00 0.15 0.15 71 1015.5
20260506024217 17 35 3.2 4.8 0.00 0.15 0.15 71 1015.3
20260506023713 17 323 1.6 3.2 0.00 0.15 0.15 71 1015.3
20260506023211 17 149 0.0 1.6 0.00 0.15 0.15 70 1015.2
20260506022707 18 39 1.6 1.6 0.00 0.15 0.15 70 1015.0
20260506022205 18 153 1.6 1.6 0.00 0.15 0.15 70 1015.3
20260506021703 18 52 3.2 4.8 0.00 0.15 0.15 69 1014.9
20260506021200 18 58 1.6 1.6 0.00 0.15 0.15 69 1015.1
20260506020656 18 44 0.0 1.6 0.00 0.15 0.15 69 1015.0
20260506020154 18 28 3.2 3.2 0.00 0.15 0.15 68 1015.0
20260506015652 18 44 1.6 1.6 0.00 0.15 0.15 69 1015.0
20260506015149 18 94 3.2 9.7 0.00 0.15 0.15 69 1015.2
20260506014646 18 43 1.6 1.6 0.00 0.15 0.15 68 1014.9
20260506014142 18 43 1.6 3.2 0.00 0.15 0.15 68 1014.9
20260506013640 18 34 1.6 1.6 0.00 0.15 0.15 67 1014.9
20260506013137 19 83 1.6 1.6 0.00 0.15 0.15 66 1015.0
20260506012633 19 69 0.0 0.0 0.00 0.15 0.15 65 1015.0
20260506012130 19 85 1.6 1.6 0.00 0.15 0.15 65 1014.8
20260506011627 19 41 1.6 1.6 0.00 0.15 0.15 64 1014.8
20260506011123 20 101 1.6 1.6 0.00 0.15 0.15 63 1014.8
20260506010622 19 51 0.0 0.0 0.00 0.15 0.15 63 1014.7
20260506010119 19 115 0.0 1.6 0.00 0.15 0.15 63 1014.7
20260506005616 19 38 1.6 1.6 0.00 0.15 0.15 63 1014.7
20260506005112 19 42 1.6 3.2 0.00 0.15 0.15 63 1014.8
20260506004609 20 60 0.0 0.0 0.00 0.15 0.15 63 1014.8
20260506004106 20 49 1.6 1.6 0.00 0.15 0.15 62 1014.6
20260506003602 20 50 0.0 1.6 0.00 0.15 0.15 62 1014.7
20260506003058 20 54 3.2 3.2 0.00 0.15 0.15 61 1014.6
20260506002554 20 254 0.0 1.6 0.00 0.15 0.15 61 1014.5
20260506002050 20 56 1.6 1.6 0.00 0.15 0.15 61 1014.6
20260506001547 20 61 1.6 1.6 0.00 0.15 0.15 60 1014.6
20260506001044 20 50 1.6 1.6 0.00 0.15 0.15 60 1014.6
20260506000542 20 74 0.0 0.0 0.00 0.15 0.15 59 1014.4
20260506000039 20 67 1.6 1.6 0.00 0.15 0.15 58 1014.7
20260505235537 21 37 1.6 1.6 0.00 0.15 0.15 57 1014.7
20260505235033 21 101 1.6 1.6 0.00 0.15 0.15 55 1014.3
20260505234530 22 39 1.6 1.6 0.00 0.15 0.15 53 1014.7
20260505234027 21 10 0.0 1.6 0.00 0.15 0.15 54 1014.5
20260505233525 21 13 3.2 3.2 0.00 0.15 0.15 56 1014.5
20260505233022 20 44 0.0 0.0 0.00 0.15 0.15 58 1014.7
20260505232520 20 44 0.0 1.6 0.00 0.15 0.15 60 1014.3
20260505232017 20 22 0.0 0.0 0.00 0.15 0.15 60 1014.7
20260505231514 19 58 0.0 1.6 0.00 0.15 0.15 60 1014.5
20260505231013 20 184 1.6 1.6 0.00 0.15 0.15 60 1014.6
20260505230509 19 69 0.0 0.0 0.00 0.15 0.15 61 1014.6
20260505230006 19 49 0.0 1.6 0.00 0.15 0.15 60 1014.7
20260505225503 19 132 0.0 0.0 0.00 0.15 0.15 60 1014.7
20260505224959 19 128 0.0 0.0 0.00 0.15 0.15 60 1014.7
20260505224456 19 53 0.0 0.0 0.00 0.15 0.15 60 1014.7
20260505223953 20 45 0.0 1.6 0.00 0.15 0.15 61 1014.8
20260505223450 20 52 1.6 1.6 0.00 0.15 0.15 59 1014.8
20260505222946 19 254 0.0 0.0 0.00 0.15 0.15 59 1014.8
20260505222442 19 114 0.0 0.0 0.00 0.15 0.15 59 1014.8
20260505221938 20 15 0.0 0.0 0.00 0.15 0.15 59 1015.0
20260505221436 19 341 0.0 0.0 0.00 0.15 0.15 60 1015.0
20260505220933 19 54 0.0 0.0 0.00 0.15 0.15 60 1015.0
20260505220430 19 73 0.0 1.6 0.00 0.15 0.15 60 1015.1
20260505215927 19 24 0.0 1.6 0.00 0.15 0.15 60 1015.1
20260505215425 19 40 0.0 0.0 0.00 0.15 0.15 60 1015.0
20260505214923 18 43 0.0 1.6 0.00 0.15 0.15 60 1015.1
20260505214421 18 222 0.0 1.6 0.00 0.15 0.15 60 1015.2
20260505213918 19 208 0.0 0.0 0.00 0.15 0.15 60 1015.3
20260505213415 19 270 1.6 1.6 0.00 0.15 0.15 61 1015.3
20260505212911 19 52 1.6 1.6 0.00 0.15 0.15 60 1015.3
20260505212408 19 103 0.0 0.0 0.00 0.15 0.15 60 1015.3
20260505211905 19 269 0.0 0.0 0.00 0.15 0.15 60 1015.2
20260505211402 19 60 1.6 1.6 0.00 0.15 0.15 59 1015.2
20260505210858 19 83 0.0 1.6 0.00 0.15 0.15 60 1015.4
20260505210356 19 146 0.0 1.6 0.00 0.15 0.15 60 1015.2
20260505205852 19 78 0.0 1.6 0.00 0.15 0.15 60 1015.3
20260505205351 18 98 1.6 3.2 0.00 0.15 0.15 61 1015.2
20260505204847 19 74 1.6 1.6 0.00 0.15 0.15 60 1015.4
20260505204345 18 132 0.0 0.0 0.00 0.15 0.15 61 1015.3
20260505203842 19 45 1.6 3.2 0.00 0.15 0.15 59 1015.4
20260505203338 19 59 0.0 0.0 0.00 0.15 0.15 60 1015.3
20260505202835 19 44 1.6 1.6 0.00 0.15 0.15 61 1015.3
20260505202331 19 252 1.6 3.2 0.00 0.15 0.15 61 1015.4
20260505201828 18 207 0.0 0.0 0.00 0.15 0.15 62 1015.5
20260505201325 18 29 0.0 0.0 0.00 0.15 0.15 63 1015.5
20260505200824 18 268 0.0 1.6 0.00 0.15 0.15 63 1015.5
20260505200320 18 220 1.6 1.6 0.00 0.15 0.15 63 1015.6
20260505195815 18 192 4.8 4.8 0.00 0.15 0.15 63 1015.4
20260505195313 18 45 0.0 1.6 0.00 0.15 0.15 63 1015.7
20260505194810 18 45 1.6 1.6 0.00 0.15 0.15 62 1015.6
20260505194307 18 145 0.0 0.0 0.00 0.15 0.15 63 1015.6
20260505193802 18 19 0.0 1.6 0.00 0.15 0.15 63 1015.5
20260505193300 18 81 1.6 3.2 0.00 0.15 0.15 63 1015.7
20260505192758 18 231 3.2 4.8 0.00 0.15 0.15 64 1015.5
20260505192256 18 37 1.6 1.6 0.00 0.15 0.15 64 1015.5
20260505191754 18 52 1.6 1.6 0.00 0.15 0.15 64 1015.7
20260505191252 17 52 0.0 0.0 0.00 0.15 0.15 66 1015.7
20260505190748 17 47 1.6 1.6 0.00 0.15 0.15 66 1015.7
20260505190243 17 48 0.0 1.6 0.00 0.15 0.15 68 1015.7
20260505185740 17 47 1.6 1.6 0.00 0.15 0.15 70 1015.7
20260505185236 16 49 1.6 3.2 0.00 0.15 0.15 72 1015.6
20260505184732 16 34 0.0 0.0 0.00 0.15 0.15 71 1015.7
20260505184230 16 119 0.0 0.0 0.00 0.15 0.15 71 1015.5
20260505183726 16 302 1.6 1.6 0.00 0.15 0.15 72 1015.5
20260505183224 16 49 0.0 0.0 0.00 0.15 0.15 72 1015.4
20260505182720 16 54 0.0 0.0 0.00 0.15 0.15 71 1015.3
20260505182217 16 61 0.0 0.0 0.00 0.15 0.15 72 1015.5
20260505181713 16 76 0.0 0.0 0.00 0.15 0.15 73 1015.4
20260505181211 16 73 1.6 1.6 0.00 0.15 0.15 73 1015.6
20260505180708 16 169 0.0 1.6 0.00 0.15 0.15 73 1015.6
20260505180204 16 144 0.0 1.6 0.00 0.15 0.15 74 1015.4
20260505175700 16 216 1.6 1.6 0.00 0.15 0.15 75 1015.3
20260505175157 16 100 0.0 1.6 0.00 0.15 0.15 74 1015.2
20260505174653 16 100 0.0 1.6 0.00 0.15 0.15 74 1015.3
20260505174149 16 122 0.0 0.0 0.00 0.15 0.15 75 1015.2
20260505173646 15 52 0.0 0.0 0.00 0.15 0.15 75 1015.4
20260505173144 16 52 0.0 0.0 0.00 0.15 0.15 75 1015.3
20260505172641 16 54 0.0 1.6 0.00 0.15 0.15 76 1015.1
20260505172138 16 45 1.6 1.6 0.00 0.15 0.15 76 1015.3
20260505171637 16 40 0.0 0.0 0.00 0.15 0.15 75 1015.3
20260505171135 15 13 0.0 1.6 0.00 0.15 0.15 77 1015.2
20260505170632 15 24 0.0 1.6 0.00 0.15 0.15 78 1015.1
20260505170128 15 316 0.0 0.0 0.00 0.15 0.15 77 1015.4
20260505165623 15 40 0.0 0.0 0.00 0.15 0.15 78 1015.3
20260505165120 15 42 0.0 1.6 0.00 0.15 0.15 78 1015.1
20260505164615 15 41 0.0 1.6 0.00 0.15 0.15 80 1015.2
20260505164113 15 41 1.6 1.6 0.00 0.15 0.15 80 1015.0
20260505163611 15 42 1.6 1.6 0.00 0.15 0.15 80 1015.1
20260505163108 15 43 0.0 0.0 0.00 0.15 0.15 81 1015.0
20260505162606 14 43 0.0 1.6 0.00 0.15 0.15 82 1015.1
20260505162103 14 42 0.0 1.6 0.00 0.15 0.15 83 1015.1
20260505161600 14 42 1.6 1.6 0.00 0.15 0.15 83 1015.1
20260505161057 14 50 0.0 1.6 0.00 0.15 0.15 84 1015.2
20260505160555 13 39 1.6 1.6 0.00 0.15 0.15 85 1014.9
20260505153032 13 42 0.0 1.6 0.00 0.15 0.15 89 1015.1
20260505152529 13 42 1.6 1.6 0.00 0.15 0.15 89 1014.9
20260505152024 13 34 1.6 1.6 0.00 0.15 0.15 89 1014.8
20260505151519 13 34 1.6 1.6 0.00 0.15 0.15 90 1015.0
20260505151017 12 43 0.0 1.6 0.00 0.15 0.15 90 1014.9
20260505150513 12 46 0.0 1.6 0.00 0.15 0.15 90 1014.6
20260505140438 12 46 0.0 0.0 0.00 0.15 0.15 92 1014.3
20260505124852 12 48 1.6 1.6 0.00 0.15 0.15 93 1013.8
20260505124349 12 47 1.6 1.6 0.13 0.15 0.15 93 1013.6
20260505123845 12 51 0.0 0.0 0.13 0.15 0.15 93 1014.0
20260505123342 12 42 0.0 1.6 0.00 0.13 0.13 93 1013.9
20260505122837 12 47 0.0 0.0 0.00 0.13 0.13 93 1013.8
20260505122335 12 51 0.0 1.6 0.00 0.13 0.13 93 1013.8
20260505121832 12 38 0.0 1.6 0.00 0.13 0.13 93 1013.7
20260505121329 12 43 0.0 1.6 0.00 0.13 0.13 93 1013.9
20260505120825 12 46 0.0 1.6 0.00 0.13 0.13 94 1013.8
20260505120321 12 44 1.6 1.6 0.00 0.13 0.13 94 1013.7
20260505115820 12 45 0.0 0.0 0.00 0.13 0.13 94 1013.9
20260505115317 12 54 1.6 1.6 0.00 0.13 0.13 94 1014.1